CZ-3C DEB, 40200

Orbit data source: Space-Track

CZ-3C DEB, 40200 is space debris in HEO originally from a launch on Fri, 24 Feb 2012 UTC launched from the Xichang Space Center, China (XSC). Debris objects in space refer to the collection of defunct objects orbiting the Earth. Examples of debris include non-operational satellites, rocket bodies, and fragments generated from explosions, collisions, or faulty payload assembly.

Loading next visibility...
Identifier
40200, 2012-008K
Orbit
HEO
Country
Flag of CNCN / PRC
Related business
Manufacturer
CALT
Mission
Spacecraft
Bus & Motor
Unknown
Mass
Unknown
Launch date (UTC)
2012-02-24 (14 years ago)
Launch vehicle
Unknown
Launch site
Xichang Space Center, China (XSC)
Object type
Payload
Rocket body
Debris
Shape & HBR
Unknown shape, 0.1 m
Radar Cross Section
Medium (>0.1 m² and <1 m²)

Expand to show TLE details & history
Last TLE update: 1 day ago

TLE from 1 day ago
0 CZ-3C DEB
1 40200U 12008K   26235.21920606 -.00000007  00000-0  00000-0 0  9999
2 40200  20.7262 235.7786 6974568 167.4360 228.8045  2.19221766100193
Epoch: 2026-08-23T05:15Z
TLE epoch observation values (Epoch: 2026-08-23T05:15:39.403Z)
Latitude
-0.00008°
Longitude
-174.63272°
Altitude
33,854.034 km
Speed
1.973 km/s
True Right ascension
15h 43m 11s
True Declination
0° 00' 00"
Sunlit
Object was in daylight at epoch
Visualization orbit readout
Latitude
Unknown
Longitude
Unknown
Altitude
Unknown
Speed
Unknown
Apparent Right ascension
Unknown
Apparent Declination
Unknown
Sunlit
N/A
Visualization observer readout
Local Sidereal Time
21:34:34
Azimuth
Unknown
Elevation
Unknown
Doppler factor
Unknown
Orbital elements
Apogee altitude
36,117.638 km
Perigee altitude
1,196.022 km
Semi-major axis
25,034.967 km
Eccentricity
0.69746
Inclination
20.7262°
RAAN
235.7786°
Arg. of periapsis
167.436°
True anomaly
192.58125°
Mean anomaly
228.8045°
Eccentric anomaly
209.26775°
Mean motion
0.54793 °/min
Orbital period
657.02 mins
BSTAR
0
Loading maneuver chart data...
Computing Atmospheric mass density...
Loading historical data...
Loading historical data...
Loading historical data...
Loading historical data...
Loading historical data...
Loading historical data...
Loading historical data...

Documentation

Showing up to 5 results
|